EW5058 Weather Reports


Display with metric or nautical units.
time (UTC)temp
F
wind
direction
speed
MPH
gust
MPH
rain 1hr
in
rain 24hr
in
rain mn
in
humidity
%
barometer
mb
20260901132819 82 0.0 0.0 0.00 0.00 0.00 90 1016.8
20260901131819 81 0.0 0.0 0.00 0.00 0.00 92 1016.8
20260901130820 80 0.0 0.0 0.00 0.00 0.00 93 1016.8
20260901125819 80 0.0 0.0 0.00 0.00 0.00 94 1016.8
20260901124839 79 0.0 2.0 0.00 0.00 0.00 96 1016.7
20260901123819 78 0.0 1.0 0.00 0.00 0.00 96 1016.7
20260901122859 78 0.0 0.0 0.00 0.00 0.00 97 1016.8
20260901121819 77 0.0 0.0 0.00 0.00 0.00 98 1016.8
20260901120819 77 180 1.0 3.0 0.00 0.00 0.00 99 1016.8
20260901115819 76 0.0 3.0 0.00 0.00 0.00 99 1016.9
20260901114819 75 0.0 0.0 0.00 0.00 0.00 99 1016.9
20260901113819 75 0.0 0.0 0.00 0.00 0.00 99 1016.8
20260901112819 75 0.0 0.0 0.00 0.00 0.00 99 1016.7
20260901111819 74 0.0 0.0 0.00 0.00 0.00 99 1016.8
20260901110819 74 0.0 0.0 0.00 0.00 0.00 99 1016.7
20260901105819 74 0.0 0.0 0.00 0.00 0.00 99 1016.7
20260901104819 74 0.0 1.0 0.00 0.00 0.00 98 1016.3
20260901103839 74 0.0 0.0 0.00 0.00 0.00 99 1016.3
20260901102819 74 0.0 1.0 0.00 0.00 0.00 99 1016.3
20260901101819 74 0.0 0.0 0.00 0.00 0.00 98 1016.2
20260901100819 74 0.0 0.0 0.00 0.00 0.00 98 1016.4
20260901095819 74 0.0 0.0 0.00 0.00 0.00 98 1016.4
20260901094818 75 0.0 0.0 0.00 0.00 0.00 98 1016.4
20260901093819 75 0.0 0.0 0.00 0.00 0.00 99 1016.4
20260901092819 75 0.0 0.0 0.00 0.00 0.00 98 1016.4
20260901091819 75 0.0 0.0 0.00 0.00 0.00 99 1016.4
20260901090819 75 0.0 0.0 0.00 0.00 0.00 99 1016.4
20260901085819 75 0.0 0.0 0.00 0.00 0.00 98 1016.4
20260901084819 75 0.0 0.0 0.00 0.00 0.00 98 1016.4
20260901083818 75 0.0 0.0 0.00 0.00 0.00 98 1016.4
20260901082819 75 0.0 0.0 0.00 0.00 0.00 98 1016.3
20260901081819 75 0.0 0.0 0.00 0.00 0.00 98 1016.5
20260901080818 74 0.0 0.0 0.00 0.00 0.00 98 1016.5
20260901075819 74 0.0 0.0 0.00 0.00 0.00 98 1016.5
20260901074819 74 0.0 0.0 0.00 0.00 0.00 97 1016.6
20260901073819 74 0.0 0.0 0.00 0.00 0.00 97 1016.7
20260901072838 74 0.0 0.0 0.00 0.00 0.00 97 1016.6
20260901071819 74 0.0 0.0 0.00 0.00 0.00 97 1016.7
20260901070839 74 0.0 0.0 0.00 0.00 0.00 97 1016.7
20260901065819 74 0.0 0.0 0.00 0.01 0.00 97 1016.6
20260901064818 74 0.0 0.0 0.00 0.01 0.00 97 1016.8
20260901063818 74 0.0 0.0 0.00 0.01 0.00 97 1016.9
20260901062819 74 0.0 0.0 0.00 0.01 0.00 97 1016.9
20260901061818 74 0.0 0.0 0.00 0.01 0.00 96 1016.9
20260901060818 74 0.0 0.0 0.00 0.01 0.00 96 1017.1
20260901055818 74 0.0 0.0 0.00 0.01 0.00 96 1017.1
20260901054838 74 0.0 0.0 0.00 0.01 0.00 96 1017.3
20260901053818 74 0.0 0.0 0.00 0.01 0.00 96 1017.4
20260901052818 74 0.0 0.0 0.00 0.01 0.00 96 1017.6
20260901051818 74 0.0 0.0 0.00 0.01 0.00 95 1017.7
20260901050818 74 0.0 0.0 0.00 0.01 0.00 95 1017.6
20260901045859 74 0.0 0.0 0.00 0.01 0.00 95 1017.8
20260901044818 74 0.0 0.0 0.00 0.01 0.00 95 1017.8
20260901043820 74 0.0 0.0 0.00 0.01 0.00 94 1017.9
20260901042820 74 0.0 0.0 0.00 0.01 0.00 94 1017.9
20260901041818 74 0.0 0.0 0.00 0.01 0.00 94 1017.9
20260901040818 74 0.0 0.0 0.00 0.01 0.00 93 1017.8
20260901035840 75 0.0 0.0 0.00 0.01 0.01 93 1017.9
20260901034819 75 0.0 0.0 0.00 0.01 0.01 93 1017.8
20260901033945 75 0.0 0.0 0.00 0.01 0.01 93 1017.8
20260901032839 75 0.0 0.0 0.00 0.01 0.01 93 1017.5
20260901031839 75 0.0 0.0 0.00 0.01 0.01 92 1017.6
20260901030819 75 0.0 0.0 0.00 0.01 0.01 92 1017.6
20260901025819 76 0.0 0.0 0.00 0.01 0.01 92 1017.6
20260901024819 76 0.0 0.0 0.00 0.01 0.01 92 1017.5
20260901023839 75 0.0 0.0 0.00 0.01 0.01 92 1017.5
20260901022819 75 0.0 0.0 0.00 0.01 0.01 92 1017.6
20260901021819 76 0.0 0.0 0.00 0.01 0.01 92 1017.7
20260901020819 76 0.0 0.0 0.00 0.01 0.01 91 1017.9
20260901015839 76 0.0 0.0 0.00 0.01 0.01 91 1017.8
20260901014839 76 0.0 0.0 0.00 0.01 0.01 91 1017.9
20260901013819 76 0.0 1.0 0.00 0.01 0.01 91 1017.8
20260901012819 76 0.0 0.0 0.00 0.01 0.01 90 1017.8
20260901011819 76 0.0 1.0 0.00 0.01 0.01 90 1017.8
20260901010859 76 0.0 1.0 0.00 0.01 0.01 90 1017.7
20260901005819 77 0.0 0.0 0.00 0.01 0.01 90 1017.8
20260901004819 77 0.0 0.0 0.00 0.01 0.01 90 1017.7
20260901003819 77 0.0 0.0 0.00 0.01 0.01 90 1017.8
20260901002819 77 0.0 1.0 0.00 0.01 0.01 90 1017.7
20260901001819 77 0.0 1.0 0.00 0.01 0.01 89 1017.6
20260901000819 77 0.0 1.0 0.00 0.01 0.01 89 1017.5
20260831235819 78 0.0 1.0 0.00 0.01 0.01 88 1017.5
20260831234819 78 158 2.0 7.0 0.00 0.01 0.01 88 1017.6
20260831233819 78 0.0 2.0 0.00 0.01 0.01 87 1017.7
20260831232819 79 135 1.0 2.0 0.00 0.01 0.01 86 1017.9
20260831231819 79 0.0 1.0 0.00 0.01 0.01 86 1017.9
20260831230819 80 45 2.0 4.0 0.00 0.01 0.01 85 1018.0
20260831225839 81 0.0 1.0 0.00 0.01 0.01 84 1017.9
20260831224819 82 0.0 1.0 0.00 0.01 0.01 83 1017.9
20260831223819 84 0.0 0.0 0.00 0.01 0.01 84 1017.9
20260831222819 84 0.0 0.0 0.00 0.01 0.01 84 1017.7
20260831221819 84 0.0 0.0 0.00 0.01 0.01 83 1017.8
20260831220859 84 338 1.0 2.0 0.00 0.01 0.01 82 1018.0
20260831215819 85 338 2.0 3.0 0.00 0.01 0.01 82 1018.0
20260831214818 85 338 3.0 4.0 0.00 0.01 0.01 82 1018.0
20260831213819 85 315 2.0 3.0 0.00 0.01 0.01 82 1018.0
20260831212839 85 338 2.0 3.0 0.00 0.01 0.01 82 1018.0
20260831211839 85 338 2.0 3.0 0.00 0.01 0.01 82 1017.8
20260831210818 86 338 5.0 6.0 0.00 0.01 0.01 80 1017.8
20260831205819 86 315 3.0 4.0 0.00 0.01 0.01 80 1017.7
20260831204819 86 315 3.0 4.0 0.00 0.01 0.01 79 1017.6
20260831203838 86 338 5.0 8.0 0.00 0.01 0.01 80 1017.5
20260831202818 87 338 6.0 9.0 0.00 0.01 0.01 78 1017.5
20260831201819 87 315 4.0 6.0 0.00 0.01 0.01 80 1017.6
20260831200818 87 315 4.0 6.0 0.00 0.01 0.01 79 1017.6
20260831195859 87 338 5.0 8.0 0.00 0.01 0.01 79 1017.7
20260831194818 89 315 4.0 6.0 0.00 0.01 0.01 76 1017.8
20260831193818 90 338 5.0 6.0 0.00 0.01 0.01 74 1017.8
20260831192818 91 315 5.0 8.0 0.00 0.01 0.01 74 1017.9
20260831191819 91 0.0 0.0 0.00 0.01 0.01 74 1018.0
20260831190818 92 315 2.0 2.0 0.00 0.01 0.01 74 1018.1
20260831185840 92 315 3.0 4.0 0.00 0.01 0.01 72 1018.2
20260831184818 93 315 2.0 4.0 0.00 0.01 0.01 72 1018.2
20260831183818 94 315 3.0 8.0 0.00 0.01 0.01 73 1018.1
20260831182818 92 315 4.0 6.0 0.00 0.01 0.01 73 1018.3
20260831181838 92 338 2.0 3.0 0.00 0.01 0.01 75 1018.3
20260831180820 90 315 2.0 4.0 0.00 0.01 0.01 78 1018.3
20260831175840 89 338 2.0 3.0 0.00 0.01 0.01 76 1018.4
20260831174818 89 338 1.0 3.0 0.00 0.01 0.01 74 1018.4
20260831173818 89 338 1.0 2.0 0.00 0.01 0.01 75 1018.4
20260831172818 90 315 2.0 4.0 0.00 0.01 0.01 74 1018.6
20260831171818 89 338 2.0 2.0 0.00 0.01 0.01 74 1018.6
20260831170840 89 315 3.0 5.0 0.00 0.01 0.01 76 1018.6
20260831165818 87 158 1.0 2.0 0.00 0.01 0.01 76 1018.5
20260831164900 86 0.0 0.0 0.00 0.01 0.01 81 1018.6
20260831163820 86 0.0 1.0 0.00 0.01 0.01 78 1018.7
20260831162820 86 0.0 0.0 0.00 0.01 0.01 77 1018.8
20260831161820 87 45 1.0 2.0 0.00 0.01 0.01 78 1019.0
20260831160820 88 0 1.0 3.0 0.00 0.01 0.01 77 1019.0
20260831155820 88 0 1.0 2.0 0.00 0.01 0.01 77 1019.0
20260831154840 88 0 2.0 2.0 0.00 0.01 0.01 79 1019.0
20260831153820 87 315 3.0 4.0 0.00 0.01 0.01 80 1018.9
20260831152820 86 315 3.0 4.0 0.00 0.01 0.01 81 1018.9
20260831151840 86 23 4.0 7.0 0.00 0.01 0.01 82 1018.8
20260831150820 85 0 2.0 3.0 0.00 0.01 0.01 79 1018.8
20260831145820 84 338 1.0 2.0 0.00 0.01 0.01 86 1019.0
20260831144820 83 0.0 2.0 0.00 0.01 0.01 84 1019.0
20260831143820 83 45 2.0 4.0 0.00 0.01 0.01 87 1019.0
20260831142820 82 23 2.0 4.0 0.00 0.01 0.01 87 1018.9
20260831141840 82 45 2.0 4.0 0.00 0.01 0.01 91 1018.9
20260831140820 80 0.0 1.0 0.00 0.01 0.01 93 1018.9
20260831135820 79 135 2.0 2.0 0.00 0.01 0.01 95 1019.0
20260831134820 78 68 2.0 3.0 0.00 0.01 0.01 96 1019.1
20260831133839 78 0 1.0 2.0 0.00 0.01 0.01 97 1019.1